User: anonymous   Login
Location: Newark
(43.0000°N, 1.6781°W)
Time: 15:07:09
(UTC+00:00)
Language:

A-11 Canister half - Orbit

View from above orbital plane
View from above orbital plane
View from above satellite
View from above satellite

Ground track
Ground track

The orbit data is extracted from the following two-line orbital elements,

1    53U 60009E   21101.27282406 -.00000017  00000-0  65850-3 0  9995
2    53  47.2778  60.5530 0099140 242.3572 116.7124 12.17254561704841
Epoch (UTC): 11 April 2021 06:32:51
Eccentricity: 0.0099140
inclination: 47.2778°
perigee height: 1525 km
apogee height: 1683 km
right ascension of ascending node: 60.5530°
argument of perigee: 242.3572°
revolutions per day: 12.17254561
mean anomaly at epoch: 116.7124°
orbit number at epoch: 70484

The dashed part of the orbit path shows where the satellite is in the earth's shadow,  

DLR